Location: Brompton
(51.4000°N, 0.5333°E)
Time: 03:36:25
(UTC+00:00)

USA 215 - Pass Details

Date: 26 September 2021
Orbit: 1093 x 1114 km, 123.0° (Epoch: 14 October)

Event Time Altitude Azimuth Distance (km) Brightness Sun altitude
Exits shadow 21:58:58 14° 240° (WSW) 2,649 5.3 -35.1°
Drops below altitude 10° 22:02:12 10° 270° (W) 2,957 5.8 -35.4°
Sets 22:06:12 0° 294° (WNW) 3,925 6.9 -35.7°
